Zurück zum Katalog

USA 330

AktivMilitärVLEO
NORAD 52891·PAYLOAD·🇺🇸 United States

Gestartet Jun 19, 2022 von Cape Canaveral Space Force Station

Loading…

Nächste Überflüge (nächste 24 Stunden)

TLE

VeraltetSource: Mike McCants

Epoche: Jan 12, 2025, 17:34 UTC

1 52891U 22064D   25012.73256558 0.00000000  00000-0  00000-0 0    03
2 52891  53.0058 287.8036 0006242 356.3156   3.6843 15.13407515    01

Verfolge USA 330 in Echtzeit mit AllMySat

Download on the App Store